Location: Pedholt
(56.0260°N, 10.2097°E)
Time: 02:41:02
(UTC+00:00)

Transit 2A Rocket - Pass Details

Date: 28 July 2021
Orbit: 586 x 917 km, 66.7° (Epoch: 27 September)

Event Time Altitude Azimuth Distance (km) Brightness Sun altitude
Rises 21:52:32 0° 315° (NW) 3,161 9.6 -12.7°
Reaches altitude 10° 21:54:49 10° 316° (NW) 2,287 8.6 -12.8°
Maximum altitude 22:00:06 85° 45° (NE) 818 5.1 -13.1°
Enters shadow 22:04:52 15° 134° (SE) 2,110 6.7 -13.3°
Drops below altitude 10° 22:05:53 10° 135° (SE) 2,491 - -13.3°
Sets 22:08:27 0° 136° (SE) 3,463 - -13.5°
